#datint,netname,site,siteID,timestamp,IntT,BattV,AirT2,AirT,AirT_Avg,AirT_Max,AirT_Min,RH_Avg,RH_Max,RH_Min,EA_Avg,Td_Avg,Td_Max,Td_Min,WindS_Smp,WindS_Avg,WindD_Avg,WindD_SD,WindS_Max,ETo,ETr,SoilT4,SoilT8,SoilVWC8,SolarW_Avg,wetstate_Avg,wetT_Avg,Precip_accum,Precip_WPG,Precip_TB
15min,AgWx,beryljct,423,02JUN2019:00:00:00,50.2,12.97,50.0,49.9,49.0,50.0,47.5,80,83,78,0.960,43.1,43.7,42.3,5.13,3.6,181,11,5.1,-0.00008,-0.00009,57.8,57.3,10,0,.,.,16.02,0.00,0.00
15min,AgWx,beryljct,423,02JUN2019:00:15:00,50.0,12.96,48.2,48.3,49.7,50.3,48.3,78,82,77,0.937,43.2,43.5,42.6,4.779,4.8,175,3.4,5.6,-0.00002,-0.00001,57.7,57.3,10,0,.,.,16.01,0.00,0.00
15min,AgWx,beryljct,423,02JUN2019:00:30:00,49.7,12.94,49.3,49.4,47.8,49.5,46.7,84,86,80,0.964,43.1,44.0,42.5,5.042,5.6,164,6.9,6.6,-0.00004,-0.00003,57.6,57.3,10,0,.,.,16.01,0.00,0.00
15min,AgWx,beryljct,423,02JUN2019:00:45:00,49.4,12.93,49.0,48.6,48.0,49.3,47.3,84,86,80,0.966,43.4,43.8,43.0,5.502,5.7,164,5.2,6.7,-0.00004,-0.00003,57.4,57.3,10,0,.,.,16.02,0.00,0.00
15min,AgWx,beryljct,423,02JUN2019:01:00:00,49.3,12.93,49.0,48.4,48.5,48.7,48.4,83,84,83,0.968,43.7,43.9,43.5,4.691,5.0,173,6.2,5.9,-0.00005,-0.00005,57.3,57.3,10,0,.,.,16.02,0.00,0.00
15min,AgWx,beryljct,423,02JUN2019:01:15:00,49.1,12.92,48.1,48.1,48.4,49.0,47.6,83,85,82,0.951,43.6,44.1,43.2,3.069,3.3,185,4.5,5.3,-0.00011,-0.00012,57.2,57.2,10,0,.,.,16.02,0.00,0.00
15min,AgWx,beryljct,423,02JUN2019:01:30:00,49.0,12.92,47.4,48.3,49.0,49.8,48.2,82,84,80,0.956,43.8,44.4,43.4,3.179,3.4,192,1.0,4.2,-0.00010,-0.00011,57.1,57.2,10,0,.,.,16.02,0.00,0.00
15min,AgWx,beryljct,423,02JUN2019:01:45:00,48.7,12.91,46.2,45.7,47.6,48.6,45.6,83,87,81,0.904,42.8,43.8,41.6,0,1.5,193,0.1,2.8,-0.00019,-0.00026,56.9,57.2,10,0,.,.,16.01,0.00,0.00
15min,AgWx,beryljct,423,02JUN2019:02:00:00,48.3,12.91,45.0,45.7,46.9,48.2,45.7,84,87,81,0.908,42.5,43.3,41.5,1.973,2.3,235,11,4.2,-0.00015,-0.00019,56.8,57.1,10,0,.,.,16.02,0.00,0.00
15min,AgWx,beryljct,423,02JUN2019:02:15:00,47.7,12.9,44.4,46.4,45.4,47.0,44.2,88,92,84,0.901,42.2,43.2,41.3,1.732,1.8,230,5.6,2.9,-0.00018,-0.00024,56.7,57.1,10,0,.,.,16.02,0.00,0.00
15min,AgWx,beryljct,423,02JUN2019:02:30:00,47.1,12.89,45.3,46.2,45.7,46.4,44.8,87,89,83,0.923,41.9,42.6,40.9,1.973,1.1,201,14,2.1,-0.00022,-0.00030,56.6,57.1,10,0,.,.,16.02,0.00,0.00
15min,AgWx,beryljct,423,02JUN2019:02:45:00,46.6,12.89,45.4,44.7,45.0,46.1,44.4,88,89,85,0.896,41.5,42.4,41.2,0,0.5,191,0.1,2.3,-0.00026,-0.00038,56.5,57.0,10,0,.,.,16.02,0.00,0.00
15min,AgWx,beryljct,423,02JUN2019:03:00:00,46.0,12.89,45.3,45.2,44.8,45.4,44.2,88,90,87,0.908,41.6,42.2,40.8,0.833,0.1,189,0.5,0.8,-0.00028,-0.00045,56.4,57.0,10,0,.,.,16.02,0.00,0.00
15min,AgWx,beryljct,423,02JUN2019:03:15:00,45.5,12.87,45.1,42.9,43.8,45.2,42.1,90,93,88,0.874,40.9,42.0,39.5,0.044,1.1,159,14,2.6,-0.00022,-0.00030,56.2,56.9,10,0,.,.,16.02,0.00,0.00
15min,AgWx,beryljct,423,02JUN2019:03:30:00,44.8,12.87,39.9,40.1,42.1,43.7,40.1,91,94,89,0.781,39.7,42.1,37.9,1.184,1.6,111,16,3.3,-0.00019,-0.00026,56.1,56.9,10,0,.,.,16.02,0.00,0.00
15min,AgWx,beryljct,423,02JUN2019:03:45:00,43.8,12.86,40.1,40.0,39.8,40.1,39.7,94,95,93,0.797,38.2,38.7,37.8,0.088,0.2,100,0.0,1.0,-0.00026,-0.00040,56.0,56.9,10,0,.,.,16.02,0.00,0.00
15min,AgWx,beryljct,423,02JUN2019:04:00:00,43.1,12.86,41.0,40.9,40.6,41.0,39.9,95,96,94,0.818,39.3,39.9,38.6,0,0.0,100,0.0,0.5,-0.00027,-0.00043,55.9,56.9,10,0,.,.,16.02,0.00,0.00
15min,AgWx,beryljct,423,02JUN2019:04:15:00,42.5,12.86,40.2,39.5,40.2,40.9,39.2,94,95,92,0.777,38.5,39.4,37.2,0.745,0.1,115,3.6,0.7,-0.00026,-0.00042,55.7,56.8,10,0,.,.,16.02,0.00,0.00
15min,AgWx,beryljct,423,02JUN2019:04:30:00,42.1,12.86,40.2,39.7,40.2,40.6,39.6,93,95,92,0.760,38.4,38.9,37.5,0,0.1,118,0.0,0.8,-0.00026,-0.00041,55.6,56.8,10,0,.,.,16.02,0.00,0.00
15min,AgWx,beryljct,423,02JUN2019:04:45:00,41.7,12.85,40.1,40.0,40.1,40.5,39.7,93,94,91,0.775,38.1,38.8,37.5,1.556,0.8,118,0.1,1.7,-0.00023,-0.00033,55.4,56.7,10,0,.,.,16.02,0.00,0.00
15min,AgWx,beryljct,423,02JUN2019:05:00:00,41.3,12.85,39.2,39.0,39.1,40.0,38.2,94,96,92,0.767,37.4,38.0,36.6,1.228,0.9,118,0.0,2.0,-0.00022,-0.00031,55.3,56.7,10,0,.,.,16.02,0.00,0.00
15min,AgWx,beryljct,423,02JUN2019:05:15:00,40.8,12.84,38.2,37.6,38.4,39.0,37.6,95,96,94,0.725,37.1,37.9,36.3,0.153,0.4,118,0.0,1.3,-0.00024,-0.00037,55.2,56.6,10,0,.,.,16.02,0.00,0.00
15min,AgWx,beryljct,423,02JUN2019:05:30:00,40.2,12.84,38.5,38.0,37.7,38.0,37.4,96,96,94,0.747,36.5,37.1,36.0,0.855,0.1,118,0.0,0.9,0.00001,0.00001,55.1,56.6,10,0,.,.,16.02,0.00,0.00
15min,AgWx,beryljct,423,02JUN2019:05:45:00,39.9,12.84,39.3,38.8,38.3,38.8,38.1,94,96,93,0.756,36.8,37.4,36.3,0.745,0.2,118,0.0,1.1,0.00001,0.00001,54.9,56.5,11,0,.,.,16.02,0.00,0.00
15min,AgWx,beryljct,423,02JUN2019:06:00:00,39.7,12.83,38.2,38.5,38.9,39.5,38.4,94,96,93,0.745,37.4,38.0,36.8,0,0.4,118,0.0,0.7,0.00001,0.00002,54.8,56.5,10,0,.,.,16.02,0.00,0.00
15min,AgWx,beryljct,423,02JUN2019:06:15:00,39.5,12.82,38.4,39.0,38.8,40.3,38.0,95,97,92,0.743,37.4,39.2,36.2,1.885,0.6,118,0.0,1.9,0.00002,0.00003,54.6,56.4,10,2,.,.,16.02,0.01,0.00
15min,AgWx,beryljct,423,02JUN2019:06:30:00,39.4,12.84,38.1,37.9,38.3,39.8,37.4,94,97,92,0.732,36.7,39.0,35.6,2.083,2.7,331,72,3.5,0.00011,0.00014,54.5,56.3,10,17,.,.,16.01,0.00,0.00
15min,AgWx,beryljct,423,02JUN2019:06:45:00,39.5,12.85,39.5,39.6,39.1,39.9,37.9,93,95,91,0.755,37.3,37.8,36.4,2.959,1.9,319,3.7,3.0,0.00026,0.00029,54.3,56.3,10,50,.,.,16.02,0.00,0.00
15min,AgWx,beryljct,423,02JUN2019:07:00:00,40.2,12.87,39.9,40.1,40.2,41.5,39.5,92,94,90,0.776,38.2,39.6,37.1,1.644,1.7,0.3,14,3.1,0.00037,0.00042,54.2,56.2,10,80,.,.,16.01,0.00,0.00
15min,AgWx,beryljct,423,02JUN2019:07:15:00,41.5,12.84,41.7,41.1,40.4,41.2,39.7,94,96,92,0.832,38.8,40.1,37.5,0,0.4,13,0.6,1.7,0.00053,0.00057,54.1,56.1,10,122,.,.,16.01,0.00,0.00
15min,AgWx,beryljct,423,02JUN2019:07:30:00,43.4,12.87,44.3,43.9,42.6,43.9,41.2,94,95,93,0.910,41.0,42.1,39.9,1.14,0.3,13,0.1,1.3,0.00069,0.00074,53.9,56.1,10,151,.,.,16.01,0.00,0.00
15min,AgWx,beryljct,423,02JUN2019:07:45:00,45.8,12.89,47.1,46.9,45.2,47.2,43.9,93,94,89,0.972,43.2,44.4,42.0,0,0.4,13,0.5,1.3,0.00101,0.00108,53.8,56.0,10,217,.,.,16.01,0.00,0.00
15min,AgWx,beryljct,423,02JUN2019:08:00:00,48.1,12.91,50.3,49.7,48.2,49.7,46.9,88,90,86,1.048,44.8,45.9,43.9,2.148,1.8,3.2,7.4,3.2,0.00110,0.00121,53.7,56.0,10,223,.,.,16.01,0.00,0.00
15min,AgWx,beryljct,423,02JUN2019:08:15:00,50.7,12.92,53.4,53.5,52.0,53.5,49.7,82,87,76,1.058,46.5,47.5,45.8,3.244,2.9,355,4.4,4.5,0.00158,0.00177,53.6,55.9,10,308,.,.,16.01,0.00,0.00
15min,AgWx,beryljct,423,02JUN2019:08:30:00,53.0,12.95,54.2,54.3,53.9,54.3,53.5,71,75,68,1.006,44.9,45.9,43.6,3.288,3.3,351,6.8,4.5,0.00185,0.00212,53.5,55.8,10,334,.,.,16.01,0.00,0.00
15min,AgWx,beryljct,423,02JUN2019:08:45:00,55.4,13.03,55.9,55.4,54.9,55.4,54.3,68,72,65,0.999,44.5,45.8,43.5,2.083,3.2,355,8.4,5.1,0.00233,0.00266,53.4,55.8,10,423,.,.,16.01,0.00,0.00
15min,AgWx,beryljct,423,02JUN2019:09:00:00,57.8,13.17,56.8,56.6,55.8,56.6,55.3,65,68,63,1.021,44.4,45.3,43.8,2.302,2.8,12,17,4.6,0.00259,0.00293,53.3,55.7,10,461,.,.,16.00,0.00,0.00
15min,AgWx,beryljct,423,02JUN2019:09:15:00,59.9,13.35,57.4,57.6,56.6,57.6,55.7,64,68,62,1.037,44.6,46.2,43.6,3.486,2.6,0.9,23,4.3,0.00272,0.00306,53.3,55.6,10,472,.,.,16.00,0.00,0.00
15min,AgWx,beryljct,423,02JUN2019:09:30:00,61.3,13.62,58.8,58.3,57.7,58.3,57.1,61,64,59,1.011,44.6,45.8,43.7,2.258,3.2,17,28,5.5,0.00301,0.00343,53.2,55.6,10,517,.,.,16.00,0.00,0.00
15min,AgWx,beryljct,423,02JUN2019:09:45:00,63.1,14.27,58.4,58.9,58.6,59.0,58.1,59,61,58,0.992,44.5,45.7,43.7,2.784,2.5,16,33,5.2,0.00362,0.00404,53.2,55.5,10,622,.,.,16.00,0.00,0.00
15min,AgWx,beryljct,423,02JUN2019:10:00:00,64.7,14.21,59.2,59.3,59.3,60.1,58.7,58,61,57,0.975,44.7,46.1,43.9,2.105,1.9,345,23,3.8,0.00319,0.00355,53.1,55.5,10,526,.,.,15.99,0.00,0.00
15min,AgWx,beryljct,423,02JUN2019:10:15:00,66.3,14.18,61.3,60.7,60.3,61.0,59.3,57,60,53,0.967,45.0,46.7,43.7,4.362,1.9,326,30,5.3,0.00413,0.00456,53.1,55.4,10,692,.,.,15.99,0.00,0.00
15min,AgWx,beryljct,423,02JUN2019:10:30:00,67.5,14.2,62.9,61.6,61.3,62.3,60.7,53,55,50,0.977,43.9,45.1,43.0,1.622,3.3,11,22,6.9,0.00405,0.00461,53.2,55.3,10,657,.,.,15.99,0.00,0.00
15min,AgWx,beryljct,423,02JUN2019:10:45:00,68.3,14.14,63.7,63.3,62.9,63.6,61.9,51,53,49,0.992,44.4,46.0,43.5,7.19,4.3,24,39,8.6,0.00467,0.00537,53.2,55.3,10,750,.,.,15.98,0.00,0.00
15min,AgWx,beryljct,423,02JUN2019:11:00:00,69.4,14.19,65.7,64.2,64.2,65.2,63.4,50,51,48,1.028,45.2,46.7,43.9,4.823,4.6,28,26,8.0,0.00509,0.00587,53.2,55.2,10,808,.,.,15.98,0.00,0.00
15min,AgWx,beryljct,423,02JUN2019:11:15:00,70.5,14.08,64.6,64.7,65.3,66.1,64.5,49,52,47,1.031,45.7,47.6,44.5,1.688,3.3,41,37,6.0,0.00529,0.00597,53.3,55.2,10,830,.,.,15.98,0.00,0.00
15min,AgWx,beryljct,423,02JUN2019:11:30:00,71.8,14.05,66.7,66.2,66.1,66.9,64.7,47,50,46,1.022,45.5,46.8,44.3,2.411,2.3,21,73,7.1,0.00543,0.00604,53.3,55.2,10,846,.,.,15.97,0.00,0.00
15min,AgWx,beryljct,423,02JUN2019:11:45:00,73.2,14.06,66.8,66.9,66.6,67.1,66.0,45,47,43,1.035,44.4,45.7,43.4,3.266,2.5,358,40,6.1,0.00579,0.00646,53.4,55.1,10,898,.,.,15.97,0.00,0.00
15min,AgWx,beryljct,423,02JUN2019:12:00:00,74.6,13.61,67.3,68.7,68.4,70.3,66.6,42,46,38,0.924,44.1,45.5,42.5,0.57,2.2,71,65,5.2,0.00622,0.00690,53.5,55.1,10,951,.,.,15.97,0.00,0.00
15min,AgWx,beryljct,423,02JUN2019:12:15:00,75.8,13.59,73.6,70.7,69.6,70.7,68.4,40,43,38,1.024,44.5,46.6,42.6,4.56,4.3,147,58,8.4,0.00632,0.00726,53.6,55.1,10,944,.,.,15.96,0.00,0.00
15min,AgWx,beryljct,423,02JUN2019:12:30:00,76.3,13.57,70.8,71.1,70.7,71.7,70.0,38,44,36,0.963,44.1,47.4,42.2,4.231,4.6,176,36,10.0,0.00662,0.00765,53.7,55.0,10,977,.,.,15.97,0.00,0.00
15min,AgWx,beryljct,423,02JUN2019:12:45:00,76.8,13.58,72.5,71.7,71.0,72.0,70.0,37,44,35,0.940,43.8,47.5,42.0,4.056,4.5,190,43,11.2,0.00639,0.00740,53.9,55.0,10,927,.,.,15.96,0.00,0.00
15min,AgWx,beryljct,423,02JUN2019:13:00:00,77.1,13.56,72.2,71.9,71.7,72.9,70.7,34,46,23,0.885,41.2,48.8,32.0,7.037,6.7,203,42,17.5,0.00715,0.00851,54.0,55.0,10,1037,.,.,15.96,0.00,0.00
15min,AgWx,beryljct,423,02JUN2019:13:15:00,77.3,13.57,73.7,74.1,72.5,74.2,71.3,28,35,24,0.726,37.9,42.8,33.4,7.541,6.9,198,22,12.7,0.00735,0.00882,54.2,55.0,10,1041,.,.,15.96,0.00,0.00
15min,AgWx,beryljct,423,02JUN2019:13:30:00,77.6,13.58,70.2,70.5,72.7,74.6,70.5,26,33,21,0.768,35.7,42.3,31.5,6.686,8.3,188,58,15.1,0.00662,0.00827,54.3,55.0,10,875,.,.,15.96,0.00,0.00
15min,AgWx,beryljct,423,02JUN2019:13:45:00,76.5,13.64,71.6,71.3,70.9,72.4,70.0,29,39,23,0.602,37.0,43.7,31.7,2.85,6.5,202,32,12.8,0.00442,0.00565,54.5,55.0,10,532,.,.,15.96,0.00,0.00
15min,AgWx,beryljct,423,02JUN2019:14:00:00,76.3,13.62,72.7,72.8,72.5,74.7,70.5,24,31,21,0.591,33.9,40.3,29.9,7.453,6.6,173,31,13.0,0.00567,0.00705,54.7,55.0,10,729,.,.,15.96,0.00,0.00
15min,AgWx,beryljct,423,02JUN2019:14:15:00,77.0,13.57,73.2,74.1,74.0,75.9,72.6,24,29,20,0.772,34.4,39.7,29.6,13.7,10.3,183,17,16.5,0.00772,0.00973,54.9,55.0,10,1033,.,.,15.97,0.00,0.00
15min,AgWx,beryljct,423,02JUN2019:14:30:00,77.8,13.62,73.8,74.1,73.9,75.7,72.6,25,28,22,0.762,35.9,38.8,33.7,9.45,7.1,204,20,15.1,0.00757,0.00917,55.1,55.0,10,1055,.,.,15.96,0.00,0.00
15min,AgWx,beryljct,423,02JUN2019:14:45:00,78.8,13.51,75.4,75.4,75.3,76.8,73.8,24,29,20,0.640,35.5,39.8,30.4,8.88,9.3,181,22,17.7,0.00797,0.00990,55.2,55.0,10,1055,.,.,15.96,0.00,0.00
15min,AgWx,beryljct,423,02JUN2019:15:00:00,79.3,13.51,76.8,73.7,74.3,75.5,73.3,23,28,20,0.723,34.1,38.6,30.7,3.617,7.3,181,33,14.6,0.00689,0.00850,55.4,55.1,10,940,.,.,15.96,0.00,0.00
15min,AgWx,beryljct,423,02JUN2019:15:15:00,79.9,13.48,73.9,75.8,75.2,76.6,74.1,25,32,20,0.683,36.7,42.5,32.3,13.79,8.1,185,24,14.9,0.00771,0.00945,55.5,55.1,10,1038,.,.,15.96,0.01,0.00
15min,AgWx,beryljct,423,02JUN2019:15:30:00,80.0,13.47,74.6,77.0,74.8,77.6,73.2,24,27,22,0.684,35.5,38.6,33.3,10.57,9.2,171,17,16.8,0.00636,0.00818,55.7,55.2,10,820,.,.,15.96,0.00,0.00
15min,AgWx,beryljct,423,02JUN2019:15:45:00,80.0,13.5,72.6,72.9,73.8,76.8,72.1,26,32,21,0.853,36.8,41.7,31.4,7.629,8.4,141,24,14.9,0.00454,0.00609,55.8,55.2,10,487,.,.,15.96,0.00,0.00
15min,AgWx,beryljct,423,02JUN2019:16:00:00,78.5,13.55,71.2,71.7,72.4,73.5,71.7,28,31,25,0.756,37.2,40.5,34.2,14.86,9.4,155,18,18.0,0.00367,0.00522,56.0,55.2,10,323,.,.,15.97,0.01,0.00
15min,AgWx,beryljct,423,02JUN2019:16:15:00,77.1,13.56,72.5,72.8,71.8,73.2,70.7,29,32,27,0.879,38.2,42.0,36.3,13.11,12.4,184,10,18.0,0.00481,0.00670,56.2,55.3,10,531,.,.,15.97,0.00,0.00
15min,AgWx,beryljct,423,02JUN2019:16:30:00,76.9,13.58,72.3,71.2,71.7,73.2,70.5,32,37,27,0.841,40.0,43.4,35.6,6.467,9.3,206,17,14.7,0.00476,0.00629,56.3,55.3,10,606,.,.,15.97,0.00,0.00
15min,AgWx,beryljct,423,02JUN2019:16:45:00,77.0,13.55,70.3,71.1,72.6,74.6,71.1,29,35,24,0.886,38.5,42.7,33.6,5.349,6.0,184,21,9.4,0.00400,0.00516,56.5,55.4,10,517,.,.,15.97,0.00,0.00
15min,AgWx,beryljct,423,02JUN2019:17:00:00,77.2,13.52,73.2,72.8,72.4,73.9,71.1,30,35,27,0.750,39.4,43.4,36.1,10.52,8.0,204,18,13.1,0.00539,0.00684,56.6,55.4,10,723,.,.,15.97,0.00,0.00
15min,AgWx,beryljct,423,02JUN2019:17:15:00,77.7,13.5,72.3,72.6,73.0,73.8,72.6,29,34,24,0.844,38.5,43.1,34.2,7.717,6.7,199,17,12.2,0.00487,0.00618,56.7,55.5,10,653,.,.,15.97,0.00,0.00
15min,AgWx,beryljct,423,02JUN2019:17:30:00,78.4,13.52,72.9,73.5,72.9,73.6,72.3,30,37,25,0.777,39.7,45.3,35.1,11.9,5.5,210,23,11.9,0.00451,0.00561,56.8,55.5,10,622,.,.,15.97,0.00,0.00
15min,AgWx,beryljct,423,02JUN2019:17:45:00,78.7,13.47,73.9,74.7,73.7,74.8,72.9,29,38,26,0.809,39.1,46.4,36.6,8.64,6.2,177,22,12.0,0.00430,0.00551,56.9,55.6,10,569,.,.,15.97,0.00,0.00
15min,AgWx,beryljct,423,02JUN2019:18:00:00,79.0,13.46,72.4,73.2,73.7,74.8,72.8,28,35,25,0.892,38.9,43.6,35.4,5.239,4.7,150,49,9.0,0.00382,0.00481,57.0,55.7,10,527,.,.,15.97,0.00,0.00
15min,AgWx,beryljct,423,02JUN2019:18:15:00,78.7,13.5,72.0,72.4,72.4,73.1,71.9,32,39,26,0.976,40.7,45.7,35.9,7.914,6.1,218,25,11.0,0.00362,0.00471,57.1,55.7,10,482,.,.,15.97,0.00,0.00
15min,AgWx,beryljct,423,02JUN2019:18:30:00,77.8,13.26,68.3,68.7,71.3,72.3,68.7,34,43,28,1.010,41.6,46.3,36.7,7.344,5.0,224,11,8.4,0.00242,0.00327,57.2,55.7,10,327,.,.,15.97,0.00,0.00
15min,AgWx,beryljct,423,02JUN2019:18:45:00,76.1,13.56,69.2,70.2,69.4,71.1,67.5,37,44,28,0.944,41.9,45.3,36.0,4.494,5.7,239,15,8.7,0.00250,0.00340,57.2,55.8,10,344,.,.,15.98,0.00,0.00
15min,AgWx,beryljct,423,02JUN2019:19:00:00,75.5,13.28,69.6,70.0,70.5,71.2,69.8,36,44,28,0.915,41.9,46.6,36.1,6.094,5.2,246,11,8.4,0.00253,0.00340,57.4,55.9,10,347,.,.,15.97,0.00,0.00
15min,AgWx,beryljct,423,02JUN2019:19:15:00,74.8,13.22,65.0,65.7,68.7,70.4,65.7,40,48,32,1.026,43.1,46.1,39.4,4.823,5.4,257,16,8.4,0.00154,0.00231,57.4,55.9,10,200,.,.,15.98,0.00,0.00
15min,AgWx,beryljct,423,02JUN2019:19:30:00,71.9,13.27,62.7,63.2,64.1,65.7,63.0,48,50,46,0.960,44.2,45.8,43.3,12.1,11.1,312,14,16.1,0.00118,0.00219,57.5,56.0,10,71,.,.,15.98,0.01,0.00
15min,AgWx,beryljct,423,02JUN2019:19:45:00,69.0,13.18,61.1,61.7,62.3,63.2,61.7,50,52,48,0.979,43.7,44.3,43.3,6.862,10.6,318,7.4,15.4,0.00101,0.00193,57.5,56.1,10,60,.,.,15.99,0.00,0.00
15min,AgWx,beryljct,423,02JUN2019:20:00:00,66.8,13.14,61.0,61.1,61.3,61.9,60.8,53,56,49,1.003,43.9,44.9,42.6,4.691,7.0,323,7.8,13.1,0.00049,0.00065,57.6,56.1,10,79,.,.,15.99,0.00,0.00
15min,AgWx,beryljct,423,02JUN2019:20:15:00,65.7,13.14,60.0,60.5,61.5,62.6,60.5,53,57,49,1.020,44.2,45.3,42.9,4.757,5.9,325,8.2,10.3,0.00047,0.00063,57.6,56.1,10,94,.,.,15.99,0.00,0.00
15min,AgWx,beryljct,423,02JUN2019:20:30:00,64.9,13.11,60.9,61.0,60.5,61.1,60.2,56,58,53,0.997,44.7,45.5,43.8,4.143,4.7,336,12,7.2,0.00032,0.00045,57.6,56.2,10,71,.,.,15.99,0.00,0.00
15min,AgWx,beryljct,423,02JUN2019:20:45:00,64.2,13.1,59.5,60.2,61.5,62.4,60.2,50,54,47,0.954,42.8,44.5,42.0,5.48,5.6,353,13,9.1,0.00032,0.00046,57.7,56.3,11,22,.,.,15.99,0.00,0.00
15min,AgWx,beryljct,423,02JUN2019:21:00:00,63.2,13.08,57.1,57.1,58.4,60.1,57.0,59,64,54,1.008,44.2,45.0,43.4,3.508,4.4,328,5.5,6.2,0.00011,0.00018,57.6,56.3,10,3,.,.,15.99,0.00,0.00
15min,AgWx,beryljct,423,02JUN2019:21:15:00,61.9,13.06,57.3,57.2,56.7,57.3,56.0,65,68,63,1.027,45.2,45.8,44.7,0,2.6,305,5.5,3.9,-0.00006,-0.00006,57.6,56.3,10,0,.,.,16.00,0.00,0.00
15min,AgWx,beryljct,423,02JUN2019:21:30:00,60.9,13.05,57.5,59.0,58.5,59.3,57.2,59,64,55,0.982,44.2,45.3,42.9,0,0.3,313,2.4,1.6,-0.00032,-0.00049,57.6,56.4,10,0,.,.,16.00,0.00,0.00
15min,AgWx,beryljct,423,02JUN2019:21:45:00,60.2,13.05,57.7,57.9,58.2,58.9,57.5,59,61,56,0.969,43.9,44.4,43.3,1.841,1.0,338,50,2.8,-0.00023,-0.00032,57.6,56.4,11,0,.,.,16.00,0.00,0.00
15min,AgWx,beryljct,423,02JUN2019:22:00:00,59.4,13.03,55.5,56.7,58.1,59.0,56.7,57,60,53,0.949,42.8,43.7,42.1,0.592,0.7,60,15,2.1,-0.00027,-0.00039,57.5,56.5,10,0,.,.,16.00,0.00,0.00
15min,AgWx,beryljct,423,02JUN2019:22:15:00,58.5,13.03,51.2,52.7,55.4,57.2,52.7,64,74,57,1.007,43.3,44.8,42.1,0.614,1.3,29,0.6,2.3,-0.00019,-0.00025,57.5,56.5,10,0,.,.,16.00,0.00,0.00
15min,AgWx,beryljct,423,02JUN2019:22:30:00,57.1,13.02,55.8,55.3,53.9,55.4,52.2,68,76,63,0.950,43.7,44.9,42.8,0.658,0.3,36,4.2,1.1,-0.00031,-0.00048,57.4,56.5,10,0,.,.,16.00,0.00,0.00
15min,AgWx,beryljct,423,02JUN2019:22:45:00,56.0,13.01,52.6,52.6,54.5,55.5,52.6,65,70,63,0.947,43.2,43.3,43.0,0,0.3,71,13,2.6,-0.00030,-0.00047,57.4,56.5,10,0,.,.,16.00,0.00,0.00
15min,AgWx,beryljct,423,02JUN2019:23:00:00,54.9,13,53.0,53.6,51.8,53.6,50.0,72,77,67,0.945,43.3,43.7,42.8,0.241,0.6,86,0.1,1.5,-0.00026,-0.00038,57.3,56.6,10,0,.,.,16.00,0.00,0.00
15min,AgWx,beryljct,423,02JUN2019:23:15:00,54.0,13,54.0,53.5,53.4,54.0,52.7,68,69,66,0.935,43.1,43.3,42.7,0.548,0.1,86,0.0,0.8,-0.00032,-0.00051,57.3,56.6,10,0,.,.,16.00,0.00,0.00
15min,AgWx,beryljct,423,02JUN2019:23:30:00,53.6,12.98,51.5,50.2,53.1,54.4,50.2,69,76,66,0.937,43.0,43.2,42.5,2.411,0.9,93,22,2.4,-0.00024,-0.00034,57.2,56.6,10,0,.,.,16.01,0.00,0.00
15min,AgWx,beryljct,423,02JUN2019:23:45:00,52.8,12.98,52.6,53.2,51.7,53.7,49.2,72,79,66,0.919,42.9,43.6,42.4,1.293,1.3,154,19,2.5,-0.00020,-0.00027,57.1,56.6,10,0,.,.,16.01,0.00,0.00
15min,AgWx,beryljct,423,03JUN2019:00:00:00,52.3,12.96,51.0,52.0,52.7,53.6,52.0,68,70,66,0.908,42.5,42.9,42.0,0,1.3,116,9.8,2.3,-0.00019,-0.00025,57.0,56.6,10,0,.,.,16.01,0.00,0.00
15min,AgWx,beryljct,423,03JUN2019:00:15:00,51.7,12.95,54.1,52.8,51.7,52.8,51.0,70,71,68,0.931,42.3,42.8,41.7,1.6,0.9,134,12,3.0,-0.00023,-0.00033,56.9,56.6,10,0,.,.,16.01,0.00,0.00
15min,AgWx,beryljct,423,03JUN2019:00:30:00,51.4,12.94,54.3,52.9,52.8,53.5,52.1,68,69,66,0.927,42.4,42.9,41.9,3.332,1.4,120,12,3.5,-0.00019,-0.00025,56.8,56.6,10,0,.,.,16.01,0.00,0.00
15min,AgWx,beryljct,423,03JUN2019:00:45:00,51.2,12.94,51.7,51.8,52.3,53.1,51.7,69,71,67,0.926,42.6,42.9,42.1,2.631,2.4,81,5.8,3.8,-0.00010,-0.00012,56.7,56.6,10,0,.,.,16.00,0.00,0.00
15min,AgWx,bigpiney,439,02JUN2019:00:00:00,48.9,12.71,45.2,45.1,45.3,45.7,45.0,85,86,83,0.874,40.9,41.1,40.8,1.951,2.8,265,14,5.3,0.00007,0.00010,52.3,47.3,55,0,1,0.0,3.17,0.00,0.00
15min,AgWx,bigpiney,439,02JUN2019:00:15:00,48.7,12.71,44.8,44.4,44.4,45.1,43.9,87,88,85,0.859,40.7,41.1,40.3,5.393,3.7,197,38,6.8,0.00007,0.00010,52.3,47.3,55,0,1,0.0,3.17,0.00,0.00
15min,AgWx,bigpiney,439,02JUN2019:00:30:00,48.5,12.7,44.7,44.9,44.8,45.0,44.4,85,86,84,0.852,40.6,40.8,40.4,3.902,5.6,238,21,7.5,0.00010,0.00013,52.2,47.3,55,0,1,0.0,3.17,0.00,0.00
15min,AgWx,bigpiney,439,02JUN2019:00:45:00,48.3,12.69,44.3,44.4,44.9,45.5,44.4,85,86,83,0.847,40.6,40.8,40.3,1.271,2.5,311,15,4.2,0.00007,0.00009,52.1,47.4,55,0,1,0.0,3.17,0.00,0.00
15min,AgWx,bigpiney,439,02JUN2019:01:00:00,47.9,12.68,45.2,45.7,45.1,46.0,44.2,83,86,80,0.835,40.2,40.7,39.9,1.206,1.3,325,55,3.6,0.00005,0.00007,52.0,47.4,55,0,1,0.0,3.17,0.00,0.00
15min,AgWx,bigpiney,439,02JUN2019:01:15:00,47.5,12.68,43.5,43.5,44.0,45.7,43.1,84,86,80,0.811,39.5,40.0,39.1,3.354,3.0,210,22,6.1,0.00008,0.00011,52.0,47.4,55,0,1,0.0,3.17,0.00,0.00
15min,AgWx,bigpiney,439,02JUN2019:01:30:00,47.1,12.67,45.0,44.2,43.8,45.0,42.9,84,87,80,0.817,39.3,39.7,38.8,3.179,3.7,238,31,5.5,0.00009,0.00012,51.9,47.5,55,0,1,0.0,3.17,0.00,0.00
15min,AgWx,bigpiney,439,02JUN2019:01:45:00,47.0,12.66,43.4,43.2,44.0,44.8,43.2,83,86,80,0.805,39.1,39.4,38.9,2.938,2.7,229,19,3.9,0.00008,0.00011,51.8,47.5,55,0,1,0.0,3.17,0.00,0.00
15min,AgWx,bigpiney,439,02JUN2019:02:00:00,46.8,12.65,44.1,43.0,42.9,43.2,42.6,86,87,85,0.816,39.0,39.3,38.8,4.275,3.3,246,21,4.8,0.00007,0.00009,51.7,47.5,55,0,1,0.0,3.17,0.00,0.00
15min,AgWx,bigpiney,439,02JUN2019:02:15:00,46.7,12.64,44.9,44.6,44.3,44.7,43.0,84,87,83,0.835,39.6,40.0,39.4,4.143,4.7,251,10,5.8,0.00010,0.00013,51.6,47.4,55,0,0,0.0,3.17,0.00,0.00
15min,AgWx,bigpiney,439,02JUN2019:02:30:00,47.0,12.63,44.9,44.8,45.0,45.6,44.6,83,86,81,0.860,40.3,40.9,39.8,6.226,3.7,322,43,6.6,0.00009,0.00012,51.5,47.4,55,0,0,0.0,3.17,0.00,0.00
15min,AgWx,bigpiney,439,02JUN2019:02:45:00,47.2,12.63,44.1,43.9,44.5,45.0,43.9,86,88,84,0.846,40.5,40.9,40.0,4.647,4.6,7.5,13,6.9,0.00009,0.00012,51.5,47.4,55,0,0,0.0,3.17,0.00,0.00
15min,AgWx,bigpiney,439,02JUN2019:03:00:00,47.3,12.61,44.3,44.3,44.4,44.8,43.9,87,88,85,0.840,40.7,41.2,40.0,4.713,5.4,12,14,7.7,0.00009,0.00011,51.4,47.4,55,0,0,0.0,3.17,0.00,0.00
15min,AgWx,bigpiney,439,02JUN2019:03:15:00,47.2,12.6,43.2,43.2,43.4,44.3,43.0,86,87,85,0.815,39.5,40.1,39.2,0.044,3.4,29,7.2,4.6,0.00007,0.00010,51.3,47.4,55,0,0,0.0,3.17,0.00,0.00
15min,AgWx,bigpiney,439,02JUN2019:03:30:00,46.9,12.59,42.8,42.5,42.9,44.0,42.1,86,88,83,0.804,39.0,39.6,38.4,4.165,2.6,234,8.7,5.9,0.00006,0.00008,51.2,47.4,55,0,0,0.0,3.17,0.00,0.00
15min,AgWx,bigpiney,439,02JUN2019:03:45:00,46.4,12.58,43.2,43.2,43.7,44.9,42.5,83,87,79,0.820,39.0,39.4,38.6,2.674,3.5,265,19,4.6,0.00009,0.00012,51.1,47.4,55,0,0,0.0,3.17,0.00,0.00
15min,AgWx,bigpiney,439,02JUN2019:04:00:00,46.3,12.57,43.8,43.2,42.9,43.2,42.6,89,90,86,0.849,39.8,40.3,39.2,4.121,3.9,221,15,6.0,0.00006,0.00008,51.0,47.4,55,0,0,0.0,3.17,0.00,0.00
15min,AgWx,bigpiney,439,02JUN2019:04:15:00,46.4,12.56,44.6,43.9,43.9,44.2,43.2,89,90,87,0.870,40.8,41.0,40.4,2.061,3.1,165,35,7.1,0.00005,0.00008,51.0,47.4,55,0,0,0.0,3.17,0.00,0.00
15min,AgWx,bigpiney,439,02JUN2019:04:30:00,46.7,12.55,44.8,44.7,44.9,45.7,43.8,86,90,82,0.859,40.9,41.6,40.5,8.86,7.1,63,39,10.1,0.00011,0.00014,50.9,47.4,55,0,1,0.0,3.17,0.00,0.00
15min,AgWx,bigpiney,439,02JUN2019:04:45:00,46.8,12.54,43.7,43.4,44.1,44.7,43.4,87,88,86,0.839,40.4,40.8,40.0,10.19,8.5,93,14,11.4,0.00011,0.00013,50.8,47.3,55,0,1,0.0,3.17,0.00,0.00
15min,AgWx,bigpiney,439,02JUN2019:05:00:00,46.6,12.53,43.1,42.9,43.4,43.6,42.9,86,88,85,0.806,39.4,40.0,38.9,5.086,6.6,97,15,9.5,0.00010,0.00013,50.7,47.3,55,0,1,0.0,3.17,0.00,0.00
15min,AgWx,bigpiney,439,02JUN2019:05:15:00,46.1,12.53,41.2,41.0,41.9,42.9,41.0,88,89,86,0.771,38.6,39.0,37.9,2.938,2.9,230,91,5.2,0.00005,0.00008,50.6,47.3,55,0,1,0.0,3.17,0.00,0.00
15min,AgWx,bigpiney,439,02JUN2019:05:30:00,45.4,12.52,40.5,39.9,40.4,41.7,39.6,89,91,86,0.757,37.4,38.9,36.6,3.551,3.6,286,17,4.7,0.00005,0.00007,50.5,47.3,55,0,0,0.0,3.17,0.00,0.00
15min,AgWx,bigpiney,439,02JUN2019:05:45:00,44.5,12.52,41.0,40.1,40.1,40.4,39.6,90,91,89,0.751,37.4,37.9,36.8,2.499,2.3,266,25,3.6,0.00004,0.00006,50.4,47.3,55,2,0,0.0,3.17,0.00,0.00
15min,AgWx,bigpiney,439,02JUN2019:06:00:00,43.7,12.53,39.0,39.0,40.0,41.7,38.8,88,90,85,0.723,36.9,38.6,35.6,3.639,2.9,231,8.0,4.4,-0.00014,-0.00011,50.4,47.3,55,7,0,0.0,3.17,0.00,0.00
15min,AgWx,bigpiney,439,02JUN2019:06:15:00,43.1,12.54,39.4,38.9,38.7,39.0,38.4,90,91,90,0.732,36.1,36.5,35.8,5.393,4.1,230,6.5,5.7,-0.00016,-0.00013,50.3,47.2,55,22,0,0.0,3.17,0.00,0.00
15min,AgWx,bigpiney,439,02JUN2019:06:30:00,42.8,12.57,42.0,41.4,40.1,41.4,38.9,91,92,90,0.801,37.7,38.8,36.5,0.921,3.4,255,13,5.9,-0.00011,-0.00008,50.2,47.2,55,60,0,0.0,3.17,0.00,0.00
15min,AgWx,bigpiney,439,02JUN2019:06:45:00,43.1,12.58,43.4,42.7,42.0,42.7,41.4,90,90,89,0.831,39.2,39.8,38.8,2.061,2.7,228,17,4.7,0.00004,0.00009,50.1,47.2,55,93,0,0.0,3.17,0.00,0.00
15min,AgWx,bigpiney,439,02JUN2019:07:00:00,44.2,12.61,45.1,44.8,43.8,44.9,42.7,88,89,87,0.879,40.4,41.3,39.7,0,1.0,270,15,2.4,0.00024,0.00027,50.0,47.2,55,129,0,0.0,3.17,0.00,0.00